Location: Bidwell Hollow
(37.7387°N, 90.1707°W)
Time: 02:09:41
(UTC+00:00)

Vanguard 3 - Pass Details

Date: 12 May 2026
Orbit: 507 x 3204 km, 33.3° (Epoch: 6 June)

Event Time Altitude Azimuth Distance (km) Brightness Sun altitude
Rises 22:41:38 0° 265° (W) 7,143 13.3 25.8°
Reaches altitude 10° 22:46:29 10° 264° (W) 6,115 13.4 24.8°
Maximum altitude 23:05:36 75° 183° (S) 2,689 10.1 21.1°
Drops below altitude 10° 23:18:06 10° 101° (E) 4,221 10.3 18.6°
Sets 23:20:49 0° 100° (E) 4,916 10.5 18.1°
